Regional Weather Roundup
Issued by NWS

Home | Current Version | Previous Version | Graphics & Text | Print | Product List | Glossary On
Versions: 1 2 3 4 5 6 7 8 9 10 11 12 13 14 15 16 17 18 19 20 21 22 23 24 25 26 27 28 29 30 31 32 33 34 35 36 37 38 39 40 41 42 43 44 45 46 47 48
090
ASUS45 KBOU 242307
RWRCO

WEATHER ROUNDUP FOR COLORADO
NATIONAL WEATHER SERVICE DENVER/BOULDER CO
500 PM MDT MON APR 24 2017

NOTE: "FAIR" INDICATES FEW OR NO CLOUDS BELOW 12000 FEET WITH NO
SIGNIFICANT WEATHER AND/OR OBSTRUCTIONS TO VISIBILITY.

COZ001>005-013-030-031-250000-
...NORTHWEST COLORADO...

CITY           SKY/WX    TMP DP  RH WIND       PRES   REMARKS
CRAIG          CLOUDY    54  31  41 SE7G32    29.59F
HAYDEN         CLOUDY    48  32  53 S15G25    29.64R
MEEKER         CLOUDY    59  24  26 SW24G32   29.59F
MOUNT WERNER   NOT AVBL
STEAMBOAT SPGS CLOUDY    50  34  54 S15G23    29.65S
WALDEN           N/A     41  32  70 SW17G25   29.72R
$$

COZ006>008-011-250000-
...WEST CENTRAL VALLEYS...

CITY           SKY/WX    TMP DP  RH WIND       PRES   REMARKS
GRAND JUNCTION CLOUDY    67  23  19 SW13      29.57F
MONTROSE       CLOUDY    61  25  25 SW13G35   29.68F
EAGLE          CLOUDY    54  30  40 SW12G18   29.68R
RIFLE          PTSUNNY   64  26  23 SW24G36   29.61R
DELTA          CLOUDY    67  22  18 SW16G26   29.64S
NUCLA          CLOUDY    63  21  20 SW23G35   29.72F
$$

COZ017>023-064>068-250000-
...SOUTHWEST COLORADO...

CITY           SKY/WX    TMP DP  RH WIND       PRES   REMARKS
DURANGO        CLOUDY    57  20  23 W15G29    29.80S
CORTEZ         CLOUDY    63  23  21 SW22G37   29.75F
PAGOSA SPRINGS CLOUDY    56  18  22 SW16G39   29.84F
TELLURIDE      DRIZZLE   41  32  70 SE5       29.93R
WOLF CREEK PAS CLOUDY    32  21  64 S30G46    29.97F WCI  18
$$

COZ009-010-012-014-032>034-037-058>063-250000-
...CENTRAL COLORADO...

CITY           SKY/WX    TMP DP  RH WIND       PRES   REMARKS
ASPEN          CLOUDY    48  31  51 S13       29.74R
BUENA VISTA    PTSUNNY   56  24  28 W20G28    29.72S
COPPER MTN     CLOUDY    36  25  64 MISG      29.85F
BERTHOUD PASS  FAIR      30  19  64 MISG      29.85F
COTTONWOOD PAS FAIR      45  27  49 W24G37    29.77S
GUNNISON       FAIR      52  24  33 W14G28    29.77S
KREMMLING      CLOUDY    54  36  50 SW13      29.70R
LEADVILLE      FAIR      42  21  43 SW15G23   29.77F
MONARCH PASS   MIX PCPN  32  25  74 W30G38    29.99F WCI  18
SALIDA         PTSUNNY   57  29  34 W15G28    29.79F
SUNLIGHT       CLOUDY    34  23  64 SW23G41   29.82S WCI  22
WILKERSON PASS CLOUDY    41  19  42 SW17G25   29.86F
$$

COZ069>075-250000-
...SAN LUIS VALLEY/SANGRE DE CRISTO MOUNTAINS...

CITY           SKY/WX    TMP DP  RH WIND       PRES   REMARKS
ALAMOSA        FAIR      57  21  24 SW26G38   29.75S
LA VETA PASS   CLOUDY    45  19  36 MISG      29.93S
SAGUACHE       FAIR      55  21  26 W20G28    29.74F
$$

COZ035-036-038>040-250000-
...NORTHERN COLORADO FRONT RANGE...

CITY           SKY/WX    TMP DP  RH WIND       PRES   REMARKS
DENVER INTL AP CLOUDY    64  30  27 NE14      29.57S
DMNS CITY PARK   N/A     63  30  28 NE9G20    29.55S
AURORA         PTSUNNY   63  32  31 E13       29.57F
FRONT RANGE AP CLOUDY    66  32  28 E14G21    29.58F
ERIE MUNI ARPT CLOUDY    63  30  28 E14G21    29.56F
BOULDER MUN AP CLOUDY    61  32  33 N3        29.55F
CENTENNIAL     PTSUNNY   63  32  31 E16G24    29.56F
BROOMFIELD     CLOUDY    63  30  29 E12G23    29.58F
FORT COLLINS   LGT RAIN  59  39  47 SE15G38   29.58S
LONGMONT       FAIR      66  34  30 CALM      29.57F
$$

COZ041-046-047-076>085-087-088-250000-
...PIKES PEAK/PALMER DIVIDE AND SOUTHERN FOOTHILLS...

CITY           SKY/WX    TMP DP  RH WIND       PRES   REMARKS
COLO. SPRINGS  CLOUDY    67  23  19 SW16      29.58F
A. F. ACADEMY  CLOUDY    60  30  32 E7        29.57F
SCHRIEVER AFB  PTSUNNY   64  26  23 S14G20    29.59F
ELLICOTT       FAIR     N/A N/A N/A S12       29.58F
FALCON         CLOUDY    58  29  33 N5        29.63F
FORT CARSON    FAIR      68  23  18 S16       29.54F
LIMON          PTSUNNY   63  35  35 NE12      29.60F
MONUMENT HILL  PTSUNNY   54  30  40 SE13G18   29.63F
TRINIDAD       FAIR      74  16  11 W23G30    29.58S
$$

COZ042>045-048>051-090-091-250000-
...NORTHEAST COLORADO...

CITY           SKY/WX    TMP DP  RH WIND       PRES   REMARKS
GREELEY ARPT   CLOUDY    61  35  37 S23G29    29.60R
AKRON          PTSUNNY   64  32  30 E9        29.59F
BURLINGTON     NOT AVBL
WRAY           NOT AVBL
STERLING       CLOUDY    68  32  26 CALM      29.56S
HOLYOKE        FAIR      73  34  23 N6        29.58S
FORT MORGAN    CLOUDY    65  31  28 E8        29.59S
$$

COZ086-089-092>099-250000-
...SOUTHEAST COLORADO...

CITY           SKY/WX    TMP DP  RH WIND       PRES   REMARKS
PUEBLO         FAIR      74  24  15 W12       29.50S
LA JUNTA       FAIR      78  29  16 E12       29.47F HAZE
LAMAR          FAIR      81  35  19 SE16      29.47F
SPRINGFIELD      N/A     80  26  13 E9        29.50F
$$




USA.gov is the U.S. government's official web portal to all federal, state and local government web resources and services.